Meteo Giornale » Osservazioni meteo Canada » Waterloo Well
ore: 22:00 - Osservazioni Meteo Waterloo Well
Lat. 43° 28' N Lon. 80° 23' W Alt. 317 metri s.l.m.
22 °C
Foschia
Temp. 24 Ore
18 °C
24 °C
Sud/Sud-Est
13 Km/h
Dew point 21 °C
Umidità 94 %
Visibilità 6 Km
Il sole sorge alle ore 06:44
Il sole tramonta alle ore 19:58
| Data e Ora | Cielo e Fenomeni | T °C | DP °C | Um. % | Pres. hPa | Vis. km | Vento km/h | |
|---|---|---|---|---|---|---|---|---|
| Oggi h: 22:00 | Foschia | 22 | 21 | 94 | 1016 | 6 | S/SE 13 | |
| Oggi h: 21:28 | Foschia | 22 | 21 | 94 | 1016 | 6 | S/SE 11.1 | |
| Oggi h: 21:12 | Pioggia Foschia | 22 | 21 | 94 | 1016 | 5 | SE 13 | |
| Oggi h: 21:06 | Pioggia Foschia | 22 | 21 | 94 | 1016 | 6 | S/SO 9.3 | |
| Oggi h: 21:05 | Pioggia Foschia | 22 | 21 | 94 | 1016 | 8 | S/SO 9.3 | |
| Oggi h: 21:01 | Pioggia | 22 | 21 | 94 | 1016 | 13 | SO 7.4 | |
| Oggi h: 21:00 | Pioggia | 22 | 21 | 94 | 1016 | 14 | S/SO 7.4 | |
| Oggi h: 20:52 | Pioggia | 22 | 21 | 94 | 1016 | 14 | N 5.5 | |
| Oggi h: 20:00 | Coperto | 22 | 21 | 94 | 1016 | 14 | S 9.3 | |
| Oggi h: 19:00 | Coperto | 23 | 21 | 88 | 1016 | 14 | S 9.3 | |
| Oggi h: 18:00 | Coperto | 23 | 20 | 83 | 1016 | 14 | S 7.4 | |
| Oggi h: 17:00 | Molto Nuvoloso | 24 | 21 | 83 | 1016 | 14 | NO 7.4 | |
| Oggi h: 16:00 | Molto Nuvoloso | 23 | 21 | 88 | 1017 | 14 | O/SO 16.7 | |
| Oggi h: 15:56 | Molto Nuvoloso | 22 | 21 | 94 | 1017 | 14 | O/SO 14.8 | |
| Oggi h: 15:40 | Pioggia | 22 | 21 | 94 | 1017 | 14 | O/SO 18.5 | |
| Oggi h: 15:00 | Molto Nuvoloso | 23 | 21 | 88 | 1016 | 14 | O 9.3 | |
| Oggi h: 14:00 | Foschia | 23 | 21 | 88 | 1017 | 10 | SO 9.3 | |
| Oggi h: 13:58 | Foschia | 23 | 22 | 94 | 1017 | 10 | O/SO 9.3 | |
| Oggi h: 13:50 | Pioggia Foschia | 22 | 21 | 94 | 1017 | 10 | N 5.5 | |
| Oggi h: 13:14 | Pioggia Foschia | 22 | 21 | 94 | 1017 | 8 | SO 9.3 | |
| Oggi h: 13:04 | Pioggia Foschia | 22 | 21 | 94 | 1017 | 8 | SO 11.1 | |
| Oggi h: 13:00 | Foschia | 22 | 21 | 94 | 1017 | 8 | SO 7.4 | |
| Oggi h: 12:15 | Foschia | 21 | 20 | 94 | 1018 | 6 | N 5.5 | |
| Oggi h: 12:04 | Pioggia Foschia | 21 | 20 | 94 | 1018 | 6 | N 3.7 | |
| Oggi h: 12:00 | Foschia | 21 | 20 | 94 | 1018 | 6 | N 5.5 | |
| Oggi h: 11:32 | Foschia | 21 | 20 | 94 | 1018 | 6 | S/SO 7.4 | |
| Oggi h: 11:00 | Foschia | 20 | 20 | 100 | 1018 | 6 | S/SO 13 | |
| Oggi h: 10:00 | Foschia | 20 | 19 | 93 | 1017 | 8 | S 7.4 | |
| Oggi h: 09:54 | Foschia | 20 | 19 | 93 | 1017 | 8 | S 7.4 | |
| Oggi h: 09:43 | Coperto | 19 | 19 | 100 | 1017 | 11 | S 7.4 | |
| Oggi h: 09:31 | Pioggia | 19 | 19 | 100 | 1017 | 11 | S 7.4 | |
| Oggi h: 09:28 | Coperto | 19 | 19 | 100 | 1017 | 11 | S/SE 9.3 | |
| Oggi h: 09:18 | Coperto | 19 | 19 | 100 | 1017 | 11 | S/SE 11.1 | |
| Oggi h: 09:13 | Pioggia Foschia | 19 | 19 | 100 | 1017 | 10 | S/SE 11.1 | |
| Oggi h: 09:03 | Pioggia Foschia | 19 | 19 | 100 | 1017 | 5 | S/SE 11.1 | |
| Oggi h: 09:00 | Pioggia Foschia | 19 | 18 | 93 | 1017 | 2 | S/SE 9.3 | |
| Oggi h: 08:50 | Pioggia Foschia | 19 | 18 | 93 | 1017 | 2 | S/SE 11.1 | |
| Oggi h: 08:39 | Pioggia Foschia | 19 | 18 | 93 | 1017 | 3 | S/SE 7.4 | |
| Oggi h: 08:35 | Pioggia Foschia | 19 | 18 | 93 | 1017 | 2 | N 5.5 | |
| Oggi h: 08:29 | Pioggia Foschia | 19 | 18 | 93 | 1017 | 2 | N 5.5 | |
| Oggi h: 08:27 | Pioggia Foschia | 19 | 18 | 93 | 1018 | 2 | N 5.5 | |
| Oggi h: 08:23 | Pioggia Foschia | 19 | 18 | 93 | 1017 | 2 | N 5.5 | |
| Oggi h: 08:21 | Pioggia Foschia | 19 | 18 | 93 | 1017 | 2 | S/SE 7.4 | |
| Oggi h: 08:17 | Pioggia Foschia | 19 | 18 | 93 | 1018 | 5 | N 5.5 | |
| Oggi h: 08:14 | Pioggia Foschia | 19 | 18 | 93 | 1017 | 2 | S 7.4 | |
| Oggi h: 08:00 | Pioggia Foschia | 19 | 18 | 93 | 1017 | 8 | S/SE 7.4 | |
| Oggi h: 07:57 | Pioggia Foschia | 19 | 18 | 93 | 1017 | 5 | N 5.5 | |
| Oggi h: 07:53 | Pioggia Foschia | 19 | 18 | 93 | 1018 | 3 | S/SE 7.4 | |
| Oggi h: 07:43 | Pioggia Foschia | 19 | 18 | 93 | 1017 | 5 | S/SE 7.4 | |
| Oggi h: 07:24 | Pioggia Foschia | 19 | 18 | 93 | 1017 | 3 | S/SE 9.3 | |
| Oggi h: 07:13 | Pioggia Foschia | 19 | 18 | 93 | 1017 | 2 | S/SE 11.1 | |
| Oggi h: 07:12 | Pioggia Foschia | 19 | 18 | 93 | 1017 | 5 | S/SE 9.3 | |
| Oggi h: 07:00 | Foschia | 19 | 18 | 93 | 1017 | 8 | S 7.4 | |
| Oggi h: 06:24 | Foschia | 18 | 18 | 100 | 1017 | 6 | SE 9.3 | |
| Oggi h: 06:23 | Foschia | 18 | 18 | 100 | 1017 | 6 | SE 11.1 | |
| Oggi h: 06:00 | Foschia | 18 | 18 | 100 | 1017 | 5 | SE 9.3 | |
| Oggi h: 05:00 | Foschia | 18 | 18 | 100 | 1017 | 5 | SE 7.4 | |
| Oggi h: 04:43 | Foschia | 18 | 18 | 100 | 1018 | 8 | SE 9.3 | |
| Oggi h: 04:33 | Foschia | 18 | 18 | 100 | 1017 | 10 | E/SE 11.1 | |
| Oggi h: 04:05 | Foschia | 18 | 18 | 100 | 1018 | 8 | E/SE 11.1 | |
| Oggi h: 04:00 | Foschia | 18 | 18 | 100 | 1018 | 10 | E/SE 11.1 | |
| Oggi h: 03:12 | Foschia | 18 | 18 | 100 | 1018 | 10 | E/SE 13 | |
| Oggi h: 03:02 | Foschia | 18 | 18 | 100 | 1018 | 5 | E 13 | |
| Oggi h: 03:00 | Pioggia Foschia | 18 | 18 | 100 | 1018 | 5 | E/SE 13 | |
| Oggi h: 02:58 | Pioggia Foschia | 18 | 18 | 100 | 1018 | 6 | E 14.8 | |
| Oggi h: 02:55 | Pioggia Foschia | 18 | 18 | 100 | 1018 | 8 | E 11.1 | |
| Oggi h: 02:49 | Pioggia Foschia | 18 | 18 | 100 | 1018 | 10 | E 13 | |
| Oggi h: 02:35 | Pioggia Foschia | 18 | 18 | 100 | 1019 | 5 | E/SE 11.1 | |
| Oggi h: 02:19 | Foschia | 18 | 18 | 100 | 1019 | 8 | E/SE 11.1 | |
| Oggi h: 02:17 | Foschia | 18 | 18 | 100 | 1019 | 8 | E/SE 9.3 | |
| Oggi h: 02:00 | Foschia | 18 | 18 | 100 | 1019 | 8 | E 11.1 | |
| Oggi h: 01:59 | Foschia | 18 | 18 | 100 | 1019 | 8 | E 11.1 | |
| Oggi h: 01:50 | Foschia | 18 | 18 | 100 | 1019 | 8 | E/SE 7.4 | |
| Oggi h: 01:44 | Foschia | 18 | 18 | 100 | 1019 | 8 | E/SE 7.4 | |
| Oggi h: 01:23 | Pioggia Foschia | 18 | 18 | 100 | 1019 | 6 | E 7.4 | |
| Oggi h: 01:00 | Pioggia Foschia | 18 | 18 | 100 | 1019 | 6 | E 7.4 | |
| Oggi h: 00:58 | Pioggia Foschia | 18 | 18 | 100 | 1019 | 8 | N 5.5 | |
| Oggi h: 00:57 | Pioggia Foschia | 18 | 18 | 100 | 1019 | 10 | N 5.5 | |
| Oggi h: 00:55 | Foschia | 18 | 18 | 100 | 1019 | 10 | E 7.4 | |
| Oggi h: 00:48 | Pioggia Foschia | 18 | 18 | 100 | 1019 | 10 | E 7.4 | |
| Oggi h: 00:37 | Pioggia Foschia | 18 | 18 | 100 | 1019 | 8 | E 9.3 | |
| Oggi h: 00:18 | Foschia | 18 | 18 | 100 | 1018 | 8 | E 9.3 | |
| Oggi h: 00:17 | Foschia | 18 | 18 | 100 | 1018 | 10 | E 9.3 | |
| Oggi h: 00:08 | Pioggia | 18 | 18 | 100 | 1019 | 11 | N 5.5 | |
| Oggi h: 00:05 | Pioggia Foschia | 18 | 18 | 100 | 1019 | 10 | E/SE 7.4 | |
| Oggi h: 00:00 | Pioggia Foschia | 18 | 18 | 100 | 1018 | 8 | E/SE 7.4 | |
| Ieri h: 23:57 | Pioggia Foschia | 18 | 18 | 100 | 1018 | 8 | E 7.4 | |
| Ieri h: 23:56 | Pioggia Foschia | 18 | 18 | 100 | 1018 | 10 | E 7.4 | |
| Ieri h: 23:53 | Pioggia Foschia | 18 | 18 | 100 | 1018 | 10 | E 9.3 | |
| Ieri h: 23:45 | Pioggia Foschia | 18 | 18 | 100 | 1018 | 8 | E/SE 9.3 | |
| Ieri h: 23:34 | Pioggia | 18 | 18 | 100 | 1018 | 14 | E 7.4 | |
| Ieri h: 23:00 | Molto Nuvoloso | 18 | 18 | 100 | 1018 | 14 | SE 11.1 | |



